Volver al catálogo

CZ-6A DEB

ActivoSSO
NORAD 55214·DEBRIS·🇨🇳 China

Lanzado Nov 11, 2022 desde Taiyuan Satellite Launch Center

Loading…

Próximos Pases (próximas 24 horas)

TLE

ActualizadoSource: Space-Track

Época: Sep 14, 2026, 02:25 UTC

1 55214U 22151WF  26257.10115092  .00004728  00000-0  68670-3 0  9990
2 55214  98.4259 309.0839 0096778 296.7267  62.4059 14.73324230198636

Sigue CZ-6A DEB en tiempo real con AllMySat

Download on the App Store